Theta_e
348 352 354 355 354 356 357 359 352 355 354 351 351 351 350 350 353 353 344 344 338 339 339 339 341 342 342 341 335 334 335 336 336 335 333 331 338 338 333 333 340 340 338 335 334 333 331 330 328
347 353 354 356 354 359 361 357 358 355 351 351 351 350 350 349 348 349 347 342 338 337 336 338 340 342 341 336 336 338 340 340 339 337 335 331 339 337 334 335 340 341 340 335 332 331 330 329 329
352 354 356 356 354 356 361 356 356 353 353 351 351 350 350 348 349 348 345 337 336 336 339 341 341 341 338 334 337 338 339 340 340 340 338 337 339 339 340 337 341 341 338 337 335 333 333 339 341
354 355 356 357 357 355 355 354 353 354 352 351 350 350 350 350 348 348 344 337 338 341 342 341 340 338 333 337 336 342 339 340 341 342 339 338 339 340 340 340 340 341 342 338 336 334 336 339 341
355 355 353 356 355 354 350 351 351 352 352 350 350 350 350 350 348 347 344 339 339 340 338 338 336 330 334 334 339 341 341 343 343 342 339 339 338 340 340 340 341 335 336 340 337 334 334 342 344
353 349 356 357 355 354 351 350 351 352 351 350 349 350 349 348 347 346 342 338 336 336 335 334 330 332 334 338 340 340 342 344 344 341 339 339 338 340 341 341 340 341 337 336 337 334 337 342 343
352 351 354 355 354 355 352 350 350 352 351 350 348 350 349 347 346 346 342 340 335 333 333 329 334 335 333 336 337 339 339 340 339 339 338 337 339 339 340 341 341 341 340 335 337 333 332 338 340
350 350 355 354 354 353 352 351 350 351 352 348 348 349 349 347 346 346 345 346 334 332 329 334 335 330 333 335 337 339 338 339 338 338 338 338 339 339 339 336 341 340 341 340 335 334 334 340 343
347 353 356 354 352 353 350 351 350 351 350 350 348 347 347 347 346 346 347 346 334 331 328 334 329 328 331 337 336 336 337 339 339 337 338 340 341 339 338 340 341 341 340 341 338 334 332 335 344
346 351 353 349 348 351 350 351 352 352 352 351 348 348 348 347 346 348 348 347 340 329 329 329 330 332 337 333 343 344 340 341 342 341 340 338 339 339 337 336 340 341 340 340 340 336 333 336 343
348 349 349 350 347 348 349 349 347 352 353 350 348 348 348 344 348 349 346 343 343 331 328 328 333 341 345 344 344 343 343 345 342 341 342 342 341 341 340 338 337 338 338 338 339 340 334 334 337
347 347 348 349 346 350 350 350 347 350 351 351 348 348 345 342 343 344 345 344 346 341 337 339 340 344 347 346 345 346 345 346 345 345 344 343 344 342 339 339 336 336 336 338 338 342 339 337 339
347 346 346 347 348 351 351 351 352 351 351 349 346 345 342 342 342 341 343 346 345 347 342 342 340 346 347 348 345 346 346 346 346 346 345 343 343 343 339 339 335 342 341 338 341 340 341 339 340
346 346 346 345 350 348 351 352 352 351 349 347 345 342 341 342 342 341 343 345 347 347 346 343 343 346 346 345 346 346 346 346 346 346 346 345 343 341 343 344 339 341 341 342 343 343 344 341 338
345 348 346 347 349 350 350 354 354 351 349 347 344 341 341 341 340 341 342 343 344 346 345 345 345 345 346 345 345 345 346 345 347 346 345 345 346 345 345 340 339 337 337 342 341 342 343 342 337
345 346 351 350 349 349 349 355 351 350 349 346 342 339 339 339 339 340 340 342 340 341 343 341 340 343 346 347 344 346 346 345 347 347 347 346 348 348 345 345 341 340 337 345 345 342 343 343 342
344 346 346 353 346 347 351 353 351 350 349 348 344 340 338 337 338 339 339 338 339 340 338 341 343 342 343 343 344 344 347 346 349 349 348 347 346 344 344 345 343 343 337 340 346 343 345 344 344
339 340 346 351 345 344 353 352 350 350 349 348 347 345 343 337 337 338 338 338 338 338 336 340 339 344 341 338 334 336 343 347 349 350 347 350 349 345 346 346 345 343 342 341 341 343 344 344 345
337 337 339 346 345 342 352 350 350 348 348 347 347 346 344 344 340 340 339 339 336 339 343 340 338 344 341 344 334 333 346 348 346 346 347 348 347 347 345 346 346 345 345 343 341 343 344 342 345
338 334 334 348 344 346 348 352 349 348 347 346 347 347 346 345 344 340 340 340 341 340 342 341 342 340 344 345 344 338 345 347 347 349 347 348 347 349 347 346 345 346 345 342 343 345 345 342 345
326 331 331 343 349 351 352 354 351 348 348 347 346 347 346 346 344 340 339 339 339 340 341 342 339 342 344 344 340 342 348 347 349 349 349 346 346 345 346 346 345 344 345 345 345 345 344 339 345
326 326 331 352 354 358 348 358 345 350 349 348 347 346 346 346 346 345 342 340 338 336 338 342 340 336 333 340 335 339 343 347 347 347 351 348 348 348 348 349 346 343 344 345 345 344 345 346 339
325 328 327 351 342 346 346 349 344 343 350 350 348 347 347 346 346 344 343 340 339 338 336 337 340 339 335 336 333 336 343 347 347 349 349 351 347 348 348 348 348 349 346 345 346 344 344 345 343
327 326 321 321 330 341 344 343 344 341 345 349 348 349 349 349 349 349 347 345 343 342 340 342 336 335 330 330 331 336 339 349 350 351 351 348 347 340 337 341 346 345 344 345 346 346 345 343 343
326 320 322 325 328 334 340 341 341 342 341 346 347 347 347 349 350 350 350 349 348 348 346 346 338 333 330 329 330 335 339 345 350 350 347 347 343 344 343 338 339 342 345 344 344 345 347 346 344
326 321 321 332 331 341 338 349 344 340 342 342 345 345 346 347 349 350 349 348 347 348 346 342 339 336 334 335 336 341 341 342 343 346 350 348 346 346 347 346 346 342 348 348 343 344 347 346 346
327 326 325 326 336 341 342 344 340 343 341 342 342 341 343 345 345 346 348 349 347 347 344 341 336 336 335 337 342 343 342 344 346 345 345 346 343 346 346 348 347 344 347 348 347 344 344 344 344
329 325 325 324 344 348 344 342 345 343 343 343 342 339 342 341 345 346 347 346 347 348 346 343 342 338 339 342 343 343 343 344 346 347 345 343 346 346 348 348 347 346 347 347 349 347 345 346 344
330 328 324 320 329 343 346 341 336 342 343 341 341 339 339 338 343 336 340 344 345 346 346 345 344 343 342 341 342 343 343 344 346 348 347 342 343 345 349 353 353 351 347 348 352 352 349 346 346
329 332 320 319 330 336 340 342 338 340 340 341 339 337 336 336 338 339 342 348 349 346 346 345 345 344 342 342 343 344 345 345 347 348 349 346 343 342 345 347 349 349 350 349 353 353 353 350 345
Wind_Speed
5 1 3 2 1 0 2 3 3 6 5 12 14 14 12 12 1 4 25 24 30 27 23 20 18 17 16 14 13 12 13 13 12 11 11 13 13 13 14 16 17 18 19 20 21 22 23 23 23
6 4 4 2 3 2 1 4 7 5 18 22 17 10 13 4 10 28 28 26 27 26 22 20 18 17 15 13 13 12 11 12 13 11 10 13 13 13 14 18 18 18 19 19 21 22 22 23 23
6 4 3 2 2 4 4 2 15 17 12 9 7 13 5 6 26 32 28 30 26 25 23 21 19 17 14 13 12 12 11 11 12 12 11 12 13 13 14 19 19 18 19 20 21 20 23 26 25
2 4 5 1 2 1 8 9 18 14 11 7 19 9 11 8 21 25 26 29 28 26 24 21 19 16 14 12 12 12 11 10 10 13 13 13 14 13 16 20 19 17 17 18 21 22 23 22 21
3 2 2 3 3 4 3 10 16 8 8 13 9 7 12 11 20 28 28 29 28 27 23 21 18 16 15 13 14 14 13 11 11 17 16 16 16 15 19 19 17 16 17 16 19 20 21 20 18
2 1 1 1 5 7 7 15 15 12 17 15 17 16 7 23 29 27 24 27 25 24 23 22 19 16 15 14 15 16 16 17 21 20 18 18 16 16 17 16 16 15 15 15 18 18 20 18 16
5 4 3 4 6 7 9 21 14 15 16 10 29 8 14 34 30 26 26 26 25 22 23 22 20 17 16 15 16 17 18 19 21 20 18 18 16 15 14 13 14 14 14 15 17 19 19 18 15
5 2 5 3 5 4 10 16 18 24 9 26 25 8 18 41 34 31 28 27 26 26 21 21 20 19 17 17 17 18 18 19 19 18 16 16 15 14 12 12 12 12 12 13 15 17 19 17 16
5 1 4 5 6 10 12 9 19 18 24 9 12 23 37 41 34 31 34 28 26 26 24 21 22 21 18 18 19 19 18 16 15 16 16 16 14 12 11 11 11 10 10 11 15 16 16 18 17
2 1 5 3 6 13 19 16 14 10 16 4 11 28 39 36 33 38 38 30 24 27 25 22 23 22 20 18 18 19 20 17 12 11 10 14 13 13 9 10 10 10 10 9 11 13 13 13 15
2 4 4 5 22 11 18 16 4 18 3 13 32 39 38 35 39 39 35 28 24 27 26 22 23 23 19 17 14 15 15 12 12 10 3 8 11 12 10 8 11 11 10 8 8 10 14 13 15
2 15 19 9 11 13 12 8 6 11 7 18 31 49 40 36 37 35 34 30 28 28 23 20 21 18 16 12 10 10 10 9 10 9 8 8 11 13 10 10 10 11 9 7 7 11 10 14 13
5 9 17 19 23 15 13 5 8 12 20 22 34 33 35 36 38 30 27 30 29 27 26 19 16 17 16 12 9 10 10 7 6 6 3 4 7 8 6 11 12 9 8 11 11 12 6 17 16
5 13 23 12 20 20 18 16 9 13 27 29 33 31 33 34 37 27 27 35 31 26 26 22 18 18 15 14 10 9 6 7 4 4 3 3 3 6 3 12 13 12 10 7 6 8 4 7 20
7 6 6 8 16 14 27 6 10 25 26 27 26 28 32 32 30 28 28 30 30 27 25 23 20 18 18 14 13 10 10 7 8 6 5 5 2 3 5 10 10 11 9 7 9 9 3 10 19
1 4 3 6 15 4 8 5 18 27 29 24 25 27 31 30 27 28 28 27 23 22 23 19 21 20 18 15 14 11 10 5 5 5 4 5 5 3 3 9 10 9 11 10 9 10 9 11 11
1 4 5 4 4 5 5 7 20 26 24 24 25 27 26 27 28 31 29 25 22 23 20 22 19 16 14 13 16 16 13 7 5 6 7 7 5 5 3 5 6 11 15 14 12 10 10 12 11
4 6 6 6 5 9 8 9 16 26 24 25 24 25 23 31 31 30 34 27 27 28 23 25 20 18 13 9 14 14 15 11 7 5 7 6 7 3 4 5 8 10 15 17 19 14 13 12 12
4 10 7 4 8 7 7 17 15 22 20 21 23 25 26 26 31 30 32 31 29 28 23 26 29 24 20 15 12 12 17 10 9 7 5 5 5 2 2 5 9 13 10 16 21 19 17 16 16
11 16 7 3 2 6 5 9 14 18 22 27 27 25 29 26 25 29 35 34 29 32 26 30 29 25 18 17 11 9 13 13 10 8 7 8 7 7 5 4 6 8 9 12 12 18 16 15 20
7 8 6 10 4 9 11 4 4 6 17 22 26 31 27 31 29 33 36 35 33 34 35 32 30 21 18 16 11 13 11 14 12 9 9 9 9 6 6 6 7 7 8 9 9 12 17 15 15
3 6 6 19 13 7 4 4 6 10 9 17 24 27 30 29 33 37 36 35 34 32 30 37 35 25 23 20 16 17 16 13 11 11 8 9 9 10 10 10 10 10 8 9 9 11 14 18 20
8 3 4 20 7 7 3 5 2 8 7 12 22 30 35 36 34 36 38 35 33 32 33 34 40 37 31 25 18 18 17 14 12 13 13 9 11 11 13 13 14 11 12 12 12 13 11 15 19
2 5 8 5 5 2 5 4 4 2 7 13 21 30 35 37 38 35 34 32 32 31 31 30 37 34 33 30 23 20 21 17 14 12 13 11 10 9 9 16 11 13 12 13 14 13 12 13 14
6 7 3 3 3 3 4 7 6 7 9 3 7 8 13 30 37 35 33 33 32 28 27 28 32 35 34 31 30 25 21 21 16 15 16 14 10 15 3 6 3 16 12 12 13 15 16 17 15
4 8 6 3 2 1 8 3 5 7 11 6 14 12 11 12 24 31 33 28 26 27 25 26 31 34 33 30 28 25 23 20 21 21 19 19 17 12 10 9 9 10 15 15 14 16 17 17 18
3 2 5 7 3 5 2 1 6 7 6 11 16 10 10 12 10 8 18 29 29 29 27 30 29 29 30 28 25 24 25 22 18 18 22 24 19 16 14 14 13 13 13 16 15 15 16 16 16
1 2 5 4 4 1 1 2 5 8 7 6 11 8 13 15 13 12 11 15 29 39 31 29 30 28 29 27 24 25 26 23 21 18 19 23 25 23 18 14 14 14 16 15 16 16 14 17 16
5 5 3 4 5 5 3 6 7 9 10 7 5 11 13 14 14 18 25 38 36 46 42 36 34 31 31 31 28 30 27 26 23 23 21 21 22 21 21 21 20 20 19 18 17 18 15 18 17
6 4 5 5 2 3 5 5 7 8 5 7 8 5 8 12 20 22 30 34 35 48 47 40 36 35 33 31 28 29 27 26 24 23 18 15 17 20 20 19 20 22 25 26 22 22 19 19 17
Wind_Direction
118 125 291 307 68 178 174 211 155 114 60 79 112 107 112 44 49 154 146 158 158 152 150 146 140 132 127 119 111 109 110 110 116 123 125 120 112 115 122 128 124 117 113 115 117 117 117 118 119
178 224 294 258 125 101 109 245 97 114 134 100 78 66 55 92 91 133 145 162 159 155 152 147 144 137 130 123 115 112 110 114 116 123 129 126 119 120 125 134 128 124 118 121 121 126 126 127 128
186 252 252 218 191 169 143 271 121 127 122 92 104 63 68 94 132 140 147 157 158 153 148 145 143 139 132 122 116 113 112 116 124 124 131 129 123 122 125 137 134 130 124 122 122 124 126 126 125
142 226 245 233 224 102 155 186 143 125 94 82 107 78 102 142 138 149 145 157 152 147 145 143 143 139 129 122 116 110 109 111 131 136 133 129 126 120 130 136 136 133 126 124 128 131 133 130 125
293 338 333 261 231 113 160 147 137 134 97 126 125 127 117 149 158 144 151 156 151 146 145 143 142 135 127 120 115 108 101 89 131 139 134 129 124 119 127 132 135 134 131 127 130 133 138 132 127
84 13 327 322 122 150 164 159 148 112 125 119 108 120 108 155 149 154 156 154 154 150 147 143 140 133 123 115 111 110 101 96 114 127 127 129 124 122 128 133 132 129 128 129 130 136 142 132 126
62 3 331 302 119 159 161 167 174 146 148 143 133 122 145 157 158 162 156 150 155 153 150 145 136 129 121 111 111 111 106 105 115 121 125 127 125 125 129 135 136 134 131 130 134 139 150 150 144
57 52 294 245 188 153 163 175 169 156 150 139 139 165 169 161 164 164 162 159 159 153 152 143 132 124 119 112 112 112 110 113 115 119 121 125 125 130 135 140 141 144 141 131 136 142 156 161 156
176 168 234 240 178 96 158 182 175 165 139 162 186 166 159 162 165 175 173 165 162 157 150 144 129 118 116 112 111 110 111 115 122 128 133 133 131 133 132 143 144 143 135 128 141 149 161 168 165
26 227 249 295 78 132 136 138 143 139 158 101 125 145 159 162 172 170 167 165 162 160 152 146 132 120 114 116 116 108 111 110 117 120 129 131 134 139 140 148 146 146 140 133 144 157 154 173 181
185 243 345 194 143 142 149 172 128 136 201 174 152 156 160 159 164 166 165 163 159 163 151 149 137 127 110 118 119 115 119 108 110 123 114 150 146 151 159 164 152 164 160 155 146 161 168 179 196
260 250 274 252 144 143 160 157 106 152 184 175 167 160 159 157 153 157 168 164 164 157 156 148 150 142 131 124 124 130 125 112 115 113 128 162 183 163 163 170 163 174 179 169 162 167 176 198 189
203 300 313 316 153 117 117 123 104 99 137 148 145 156 159 159 159 149 160 172 170 157 151 152 150 141 143 148 132 118 131 125 123 139 110 171 195 175 195 177 169 175 199 204 219 203 238 211 238
232 282 289 308 134 128 116 126 91 128 136 145 157 159 163 166 167 158 147 170 172 164 163 160 166 160 164 162 157 142 153 152 177 189 229 307 230 243 261 192 177 184 210 195 203 201 237 197 180
286 300 343 268 118 122 112 85 128 150 144 145 160 166 169 171 175 173 164 154 161 162 168 177 175 176 181 180 172 159 173 184 225 234 244 262 298 261 221 190 196 206 209 227 178 176 138 187 177
341 13 57 209 145 142 97 126 149 157 148 151 160 169 175 181 183 186 179 175 170 167 170 181 188 187 190 196 198 183 188 183 173 225 267 264 264 258 220 198 198 217 219 192 176 174 159 156 178
235 261 211 193 140 126 94 123 166 162 156 155 171 177 180 179 186 196 196 195 200 190 191 193 193 194 204 217 208 209 205 192 216 254 277 275 326 323 199 191 207 219 216 212 209 193 177 173 180
165 244 179 187 193 111 113 130 157 166 162 165 175 184 186 185 193 196 198 206 194 191 196 195 211 209 210 202 207 198 203 202 215 239 271 309 329 316 270 198 201 206 215 212 214 206 197 195 187
199 239 205 234 209 101 125 128 158 165 169 165 178 187 190 194 194 201 201 200 191 194 208 213 209 203 209 199 183 202 192 202 211 222 256 285 314 30 267 232 219 220 208 216 217 215 218 206 194
228 222 200 184 131 89 92 125 154 171 175 171 178 191 197 197 196 199 197 199 199 199 198 194 206 214 203 199 213 216 208 203 187 226 254 274 284 309 313 304 256 253 189 183 223 226 220 215 203
318 135 177 161 171 91 129 64 175 199 166 173 182 194 197 197 197 198 199 203 207 210 207 205 210 207 212 211 219 213 207 204 217 230 239 254 261 303 315 304 280 258 218 229 235 215 214 223 207
298 168 129 132 131 164 187 191 233 176 181 177 187 191 195 201 206 210 209 213 214 210 213 216 217 224 233 227 232 231 229 214 213 212 254 244 254 274 283 305 295 270 252 236 230 225 225 226 222
217 234 118 161 113 126 229 99 241 130 200 196 187 197 198 198 205 207 210 214 218 220 220 219 226 235 234 225 237 235 235 228 230 239 245 247 235 253 258 262 255 260 274 263 244 232 244 231 225
333 2 35 71 128 121 206 102 16 328 224 201 195 199 200 203 207 216 221 222 225 228 226 226 227 232 229 229 234 239 232 222 217 225 246 239 248 343 268 250 251 261 252 247 249 248 239 227 225
78 61 319 342 28 209 151 66 224 301 310 130 160 173 212 208 210 211 215 216 223 225 217 222 224 226 227 231 232 238 242 232 228 228 242 244 256 257 244 125 247 237 245 240 234 244 241 233 238
192 151 154 226 143 84 36 131 250 166 299 199 145 139 159 185 204 216 214 210 214 220 214 213 218 219 219 223 230 234 236 235 236 234 239 250 253 257 274 286 297 251 241 247 237 238 242 243 239
270 247 191 102 61 101 160 329 305 327 263 241 114 149 154 141 179 224 220 234 228 218 218 216 218 223 220 223 225 230 232 232 237 244 240 242 247 248 264 269 278 250 278 252 250 247 244 246 248
168 223 14 26 138 102 349 214 216 244 251 292 128 153 170 121 197 232 210 248 241 237 229 220 221 222 228 229 231 238 239 243 244 249 253 244 246 251 249 254 256 265 270 266 246 255 252 250 248
10 352 39 114 124 150 117 260 216 220 224 231 58 205 170 148 174 223 240 285 250 236 235 234 227 232 236 240 245 244 252 252 252 253 263 253 248 245 248 256 265 264 271 267 258 257 260 256 259
170 204 139 112 311 48 118 253 236 237 296 280 330 305 96 173 168 220 268 273 233 229 231 233 234 238 241 246 251 254 258 257 255 260 260 260 252 250 257 259 263 265 267 260 260 260 261 259 259